This is the latest recevied weather packets stored in our database for station/object EA8DNP-14. If no packets are shown the sender has not sent any weather packets the latest 1 day(s).
| Time | Temp. | Humidity | Pressure | Rain* | Wind** | Luminosity | Snow |
|---|---|---|---|---|---|---|---|
| 1788578454 | 21.67° C | 18% | 903.8 hPa | - | - | - | - |
| 1788577554 | 22.22° C | 18% | 903.9 hPa | - | - | - | - |
| 1788576654 | 21.11° C | 19% | 904 hPa | - | - | - | - |
| 1788575754 | 20.56° C | 20% | 904.1 hPa | - | - | - | - |
| 1788574854 | 20° C | 20% | 904.4 hPa | - | - | - | - |
| 1788573954 | 20° C | 20% | 904.5 hPa | - | - | - | - |
| 1788573054 | 20° C | 20% | 904.6 hPa | - | - | - | - |
| 1788572154 | 20° C | 20% | 904.8 hPa | - | - | - | - |
| 1788571254 | 20° C | 20% | 904.8 hPa | - | - | - | - |
| 1788570354 | 20.56° C | 20% | 904.9 hPa | - | - | - | - |
| 1788569453 | 20.56° C | 20% | 905.1 hPa | - | - | - | - |
| 1788568553 | 20.56° C | 20% | 905 hPa | - | - | - | - |
| 1788567653 | 21.11° C | 19% | 905.2 hPa | - | - | - | - |
| 1788566753 | 20.56° C | 21% | 905.2 hPa | - | - | - | - |
| 1788565885 | 20.56° C | 21% | 905.4 hPa | - | - | - | - |
| 1788565853 | 20.56° C | 21% | 905.4 hPa | - | - | - | - |
| 1788564953 | 20.56° C | 21% | 905.4 hPa | - | - | - | - |
| 1788564053 | 20.56° C | 21% | 905.4 hPa | - | - | - | - |
| 1788563153 | 20.56° C | 22% | 905.6 hPa | - | - | - | - |
| 1788562253 | 20° C | 22% | 905.7 hPa | - | - | - | - |
| 1788561356 | 20.56° C | 23% | 905.6 hPa | - | - | - | - |
| 1788560452 | 20.56° C | 23% | 905.7 hPa | - | - | - | - |
* Rain since midnight (hover to see other rain measurements)
** Current wind speed in m/s (hover to see current wind gust speed)